sat.trackr.live / text

‹ back to catalog

STARLINK-2111

NORAD 47390 · 2021-005AT

PAYLOAD ACTIVE UNKNOWN

§ Identity

Operator
Country
US
Launch date
2021-01-20
Launch site
AFETR
Launch vehicle
Mass (kg)
RCS (m²)

Purposes: comms

External: N2YO · Heavens-Above · Gunter

§ Orbital elements

Epoch: 2026-09-19T13:11:54.332160Z

Period
94.01 min
Inclination
53.1603°
Eccentricity
0.0001775
Mean motion
15.31695339 rev/d
Perigee alt
469.5 km
Apogee alt
472.0 km
Semi-major
6,848.9 km
B*
3.0101e-5
RAAN
244.1413°
Arg perigee
77.4017°
Mean anomaly
282.7183°
Rev number
31,267

§ Raw data

STARLINK-21111 47390U 21005AT  26262.54993440  .00000569  00000+0  30101-4 0  99952 47390  53.1603 244.1413 0001775  77.4017 282.7183 15.31695339312673

JSON: /api/v1/satellites/47390 · /tle

For live sub-satellite position, see the globe view (requires WebGL).

§ Visibility from observer

Set your observer location to see the next 7 days of passes ≥ 10°. The values pass through the URL so the page stays shareable.

No JS? Fill the form by hand. The geolocation button needs JavaScript.